Theta_e
297 297 297 298 297 296 294 294 297 300 301 301 301 301 300 299 300 302 304 307 310 312 319 322 323 324 326
295 294 295 296 295 293 291 289 292 297 298 298 298 298 297 297 297 299 301 304 305 308 311 318 324 325 325
295 295 294 293 291 290 288 288 288 290 292 294 297 296 295 295 296 296 298 301 303 304 306 308 312 320 322
294 293 292 290 289 288 286 286 287 286 287 289 291 292 293 294 294 294 295 298 301 302 303 303 305 308 312
292 290 288 287 287 286 288 287 286 285 285 286 287 288 289 292 293 293 294 295 297 299 300 301 302 303 305
289 289 287 286 287 287 286 284 284 285 284 285 286 286 287 290 293 293 294 294 295 296 296 297 298 299 300
290 289 288 288 287 284 283 283 283 284 284 282 285 284 286 288 292 292 293 294 295 295 295 295 295 296 296
287 288 287 287 287 286 285 283 283 283 284 282 283 283 285 287 290 291 292 292 293 293 294 294 294 295 295
289 289 289 288 286 285 283 283 282 282 283 283 282 282 283 285 285 289 289 289 290 290 291 291 291 290 292
284 285 286 288 287 285 285 283 282 281 283 282 281 281 282 283 284 284 285 286 287 287 288 289 289 289 289
282 282 284 284 284 284 284 284 282 282 284 282 280 280 280 281 282 283 283 283 283 283 286 286 287 287 288
280 280 281 283 283 284 283 283 284 283 285 282 281 281 280 280 280 281 281 282 282 282 283 283 283 284 285
281 281 282 283 283 283 282 282 282 283 283 281 282 280 280 279 279 280 280 281 281 281 281 282 282 282 283
281 282 282 281 281 282 281 281 281 281 282 281 281 281 280 280 280 279 280 278 280 280 280 281 282 282 282
281 280 280 281 281 281 281 279 280 279 279 281 281 281 281 280 278 279 279 279 280 280 279 279 281 282 282
281 280 280 280 281 281 280 280 279 278 279 279 280 279 280 281 282 280 279 279 280 279 279 277 279 282 282
281 280 280 280 281 280 279 279 279 279 279 278 277 278 276 275 280 283 279 279 279 279 279 279 278 280 281
Wind_Speed
1 1 2 4 3 3 3 3 3 6 6 6 7 7 9 8 9 11 14 15 17 22 24 6 11 10 10
2 1 1 2 3 3 3 3 3 7 8 8 7 9 8 9 10 12 13 14 16 19 24 23 9 12 12
3 1 1 2 2 3 2 1 3 6 7 8 7 7 8 10 11 11 11 13 14 17 20 23 25 16 17
2 2 1 0 1 2 2 1 2 3 4 6 6 7 9 10 11 10 10 10 11 14 17 19 20 20 22
2 1 2 2 3 2 2 2 2 2 1 2 2 3 4 7 5 8 8 8 9 11 13 15 16 16 17
2 3 3 2 3 2 3 2 1 2 1 1 2 2 3 4 7 9 8 7 8 9 10 11 12 13 13
3 3 3 4 5 3 2 2 3 2 1 2 1 2 3 4 5 7 7 8 10 11 10 9 10 10 10
1 2 1 5 3 2 3 5 3 2 0 1 0 1 1 2 7 5 6 7 9 9 9 10 11 11 10
8 9 9 8 6 5 3 3 2 2 1 1 1 1 1 1 2 6 7 6 5 5 5 5 6 6 7
4 6 5 5 4 1 3 2 2 2 2 2 2 1 2 1 1 0 0 5 5 5 3 3 5 2 2
3 3 3 3 2 3 3 1 2 1 3 2 1 1 1 1 1 1 1 1 1 2 4 5 6 3 1
3 2 3 3 2 3 4 3 3 2 4 2 1 1 1 1 1 0 1 1 1 1 2 2 4 5 3
4 3 3 2 4 3 3 3 3 2 2 2 1 2 1 2 1 1 2 1 2 1 1 1 2 2 2
3 3 3 3 4 3 3 2 1 2 2 2 3 3 2 3 3 3 3 2 2 2 2 4 3 3 4
4 4 4 4 4 4 3 3 3 3 3 3 3 4 4 4 4 6 5 4 4 3 3 4 4 4 5
5 5 5 6 5 4 3 4 4 4 4 3 3 2 2 6 13 6 4 4 3 3 3 3 4 3 4
6 6 6 5 7 6 5 5 5 5 4 3 3 4 3 3 1 15 4 2 1 3 4 5 4 5 6
Wind_Direction
97 143 170 154 108 73 51 44 22 61 52 57 63 52 44 32 7 8 7 8 8 6 12 192 205 222 218
172 166 179 140 135 110 81 57 23 51 47 40 58 60 36 31 20 16 10 13 19 20 29 32 130 119 135
175 164 108 179 125 91 95 85 73 50 46 38 41 52 35 26 22 18 14 12 24 33 34 43 44 67 100
174 149 135 145 107 155 161 101 81 44 38 33 46 48 34 27 23 20 17 16 28 42 44 48 50 52 63
167 143 160 160 212 167 143 132 108 33 14 34 18 35 25 16 28 35 25 26 34 45 53 57 60 58 61
179 194 170 161 175 198 131 158 181 69 231 122 4 53 20 8 29 33 43 42 47 50 57 60 61 64 70
214 200 185 186 144 175 145 156 139 131 240 171 12 102 3 337 57 47 55 55 61 61 54 61 66 66 67
233 142 120 138 147 157 156 104 96 127 327 206 61 117 351 32 33 23 62 69 69 66 62 65 62 64 69
105 108 120 131 137 135 143 157 150 145 97 237 138 174 230 181 33 37 72 47 55 62 60 61 61 70 68
79 68 64 130 131 52 147 147 120 155 162 205 173 216 193 195 267 294 49 41 50 35 29 62 71 67 73
130 121 115 105 85 89 109 107 138 144 156 135 158 204 227 167 240 267 299 354 360 23 20 49 36 38 64
159 171 179 190 163 120 97 93 74 70 128 110 118 223 265 231 221 190 230 317 206 283 302 311 1 2 321
198 199 194 166 138 126 103 103 100 113 131 140 153 170 225 285 313 265 305 180 266 264 172 234 306 323 315
204 182 142 163 179 169 171 161 163 173 176 189 191 190 209 238 258 270 246 266 179 204 271 279 264 243 248
192 185 196 191 191 182 178 168 198 172 169 180 199 222 240 240 250 244 255 247 244 260 251 282 264 249 241
202 204 206 202 198 187 181 202 207 201 195 176 179 221 245 241 222 247 249 258 258 247 227 242 267 239 241
207 212 211 210 205 204 203 204 217 221 211 176 179 210 226 249 222 207 222 219 235 244 241 237 263 271 276